Regional Weather Roundup
Issued by NWS Upton, NY

Current Version | Previous Version | Graphics & Text | Print | Product List | Glossary Off
Versions: 1 2 3 4 5 6 7 8 9 10 11 12 13 14 15 16 17 18 19 20 21 22 23 24 25 26 27 28 29 30 31 32 33 34 35 36 37 38 39 40 41 42 43 44 45 46 47 48 49 50

000
ASUS41 KOKX 232004
RWROKX

REGIONAL WEATHER ROUNDUP
NATIONAL WEATHER SERVICE NEW YORK NY
400 PM EDT SAT JUL 23 2016

NOTE: "FAIR" INDICATES FEW OR NO CLOUDS BELOW 12,000 FEET WITH NO
SIGNIFICANT WEATHER AND/OR OBSTRUCTIONS TO VISIBILITY.

NYZ071-072-176-178-NJZ106-104-232100-
NEW YORK CITY METRO AREA

CITY           SKY/WX    TMP DP  RH WIND       PRES   REMARKS
Central Park   PTSUNNY   96  54  24 VRB3G17   29.85S HX  94
LaGuardia APRT MOSUNNY   95  56  26 NW14G24   29.81S HX  93
Kennedy INTL   MOSUNNY   97  55  24 W14G25    29.83S HX  95
Newark/Liberty MOSUNNY   96  57  27 W15G25    29.82S HX  95
BRNX BOT. GARD   N/A     95  57  28 N14       29.82F HX  94
Wall St Helipt MOCLDY    93  57  29 NW5G55    29.83R HX  92
Teterboro      MOSUNNY   93  52  24 NW6G20    29.81S HX  90
$$

NYZ177-179-078>081-232100-
LONG ISLAND NEW YORK

CITY           SKY/WX    TMP DP  RH WIND       PRES   REMARKS
FARMINGDALE    MOSUNNY   96  55  25 NW16G23   29.82S HX  94
ISLIP          PTSUNNY   95  57  27 W14       29.81S HX  94
SHIRLEY        MOSUNNY   96  58  27 W15G21    29.81F HX  95
RIVERHEAD      NOT AVBL
WESTHAMPTON    MOSUNNY   94  56  27 W16G32    29.82S HX  92
SOUTHAMPTON      N/A     95  63  34 W9        29.76S HX  96
BRIDGEHAMPTON    N/A     93  64  38 NE2       29.79F HX  95
EAST HAMPTON   FAIR      91  61  36 NW8G18    29.79F HX  91
MONTAUK POINT    N/A     90  63  40 W12       29.79F HX  91
$$

NYZ052-065-067-232100-
HUDSON VALLEY

CITY           SKY/WX    TMP DP  RH WIND       PRES   REMARKS
WHITE PLAINS   MOSUNNY   94  53  25 W13       29.82F HX  91
NEWBURGH       MOSUNNY   93  59  31 NW10G20   29.83F HX  92
MONTGOMERY     MOSUNNY   95  57  27 NW10G18   29.81F HX  94
POUGHKEEPSIE   MOSUNNY   95  58  28 W8        29.78F HX  94
ALBANY         MOSUNNY   90  59  35 W14       29.80R
$$

NJZ001-105-106-008-010-013-015-019>022-104-232100-
NEW JERSEY

CITY           SKY/WX    TMP DP  RH WIND       PRES   REMARKS
NEWARK/LIBERTY MOSUNNY   96  57  27 W15G25    29.82S HX  95
TETERBORO      MOSUNNY   93  52  24 NW6G20    29.81S HX  90
CALDWELL       SUNNY     96  53  23 NW13G22   29.82F HX  93
MORRISTOWN     PTSUNNY   95  59  30 W17G24    29.84R HX  94
SOMERVILLE     MOSUNNY   96  59  29 VRB3      29.83S HX  95
SUSSEX         SUNNY     93  54  26 W10       29.85F HX  91
ANDOVER          N/A     93  58  30 VRB3      29.85F HX  92
TRENTON        SUNNY     96  57  27 N9        29.84F HX  95
MILLVILLE      SUNNY     96  70  42 W13       29.87F HX 102
ATLANTIC CITY  MOSUNNY   95  70  44 W15       29.86S HX 101
WRIGHTSTOWN    MOSUNNY   92  68  46 W14       29.81F HX  96
TOMS RIVER     MOSUNNY   96  70  42 W10G20    29.85R HX 102
BELMAR         SUNNY     97  60  29 W17       29.85S HX  97
$$

PAZ047>061-062-071-232100-
EASTERN PENNSYLVANIA

CITY           SKY/WX    TMP DP  RH WIND       PRES   REMARKS
PHILADELPHIA   MOSUNNY   96  68  39 W16G22    29.85F HX 101
ALLENTOWN      SUNNY     95  56  26 W14G22    29.87S HX  93
SCRANTON       SUNNY     95  53  24 W14G20    29.87F HX  92
$$

CTZ002-004>006-009-010-012-RIZ004-006-007-MAZ004-011-015-232100-
SOUTHERN NEW ENGLAND
 IN CT

CITY           SKY/WX    TMP DP  RH WIND       PRES   REMARKS
BRADLEY INTL   MOSUNNY   95  57  27 NW9       29.76F HX  94
HARTFORD       SUNNY     94  59  31 NW5       29.76F HX  93
DANBURY        SUNNY     92  57  30 W13G21    29.83F HX  90
WTRBRY/OXFORD  PTSUNNY   90  59  35 NW9G17    29.85
BRIDGEPORT     SUNNY     96  57  27 W12G26    29.79F HX  95
MERIDEN        MOSUNNY   94  59  31 W8        29.78F HX  93
NEW HAVEN      MOSUNNY   91  60  35 VRB7      29.79F HX  90
CHESTER        FAIR      93  57  29 NW10G17   29.80S HX  92
GROTON         MOSUNNY   89  64  43 W15G22    29.77F HX  90
WILLIMANTIC    NOT AVBL

 IN RI

CITY           SKY/WX    TMP DP  RH WIND       PRES   REMARKS
PROVIDENCE     MOSUNNY   93  60  33 W13       29.75F HX  93
BLOCK ISLAND   SUNNY     85  65  51 W15G21    29.79F
WESTERLY       MOSUNNY   89  61  38 SW10G23   29.78S

 IN MA

CITY           SKY/WX    TMP DP  RH WIND       PRES   REMARKS
BOSTON         PTSUNNY   84  63  49 SE15      29.70F
WORCESTER      MOSUNNY   88  52  29 W18       29.79F
WESTFIELD      MOSUNNY   95  53  24 W14G25    29.76F HX  92
PROVINCETOWN   MOSUNNY   85  65  51 SE7       29.73F
NANTUCKET      SUNNY     80  68  66 W16G24    29.77S
$$

ANZ330-335-338-340-345-350-353-355-232100-
COASTAL MARINE OBSERVATIONS


STATION/POSITION TIME  SKY/WX   TEMP    WIND        PRES    VSBY  WAVE
                                AIR SEA DIR/SP/G                  HT/PER
                 (UTC)          (F)     (DEG/KT/KT) (MB)    (MI)  (FT/S)
NY HARB ENTRANCE 1850            81 76  270/  6/  6 1010.2          2/ 6
20S FIRE ISLAND  1850            80 76  240/  8/ 10 1010.0          3/ 6
GREAT SOUTH BAY  1900            83 81  230/ 12/ 16   N/A
23 SSW MONTAUK P 1850            75 72  260/ 14/ 16 1009.7          4/ 7
15 E BARNEGAT LI 1922               77                N/A           2/ 6
HUDSON CANYON    1850            79 78              1010.7          5/ 7
KINGS POINT      1900            89 72              1009.4
EXECUTION ROCKS  1900            88     290/ 10/ 19   N/A
CENTRAL LI SOUND 1900            80 73  240/ 10/ 14   N/A           2/ 3
EASTERN LI SOUND 1900            76 68  230/ 14/ 17   N/A
ROBBINS REEF     1900            91     280/ 12/ 15 1009.3
$$


>>>>>>>>>>>>>>>>>>>>>>>>>>>> KEY <<<<<<<<<<<<<<<<<<<<<<<<<<<
>                                                          <
>     SKY/WX - SKY CONDITION/PRESENT WEATHER               <
>     TMP    - TEMPERATURE IN FAHRENHEIT                   <
>     DP     - DEWPOINT IN FAHRENHEIT                      <
>     RH     - RELATIVE HUMIDITY IN PERCENT                <
>     WIND   - DIRECTION AND SPEED IN MPH                  <
>     PRES   - MEAN SEA LEVEL PRESSURE IN INCHES OF HG     <
>     WCI    - WIND CHILL INDEX                            <
>     VSB    - VISIBILITY IN MILES                         <
>     HX     - HEAT INDEX                                  <
>     TC     - TEMPERATURE IN CELSIUS                      <
>     VRB    - VARIABLE WIND DIRECTION                     <
>                                                          <
>>>>>>>>>>>>>>>>>>>>>>>>>>>> KEY <<<<<<<<<<<<<<<<<<<<<<<<<<<





USA.gov is the U.S. government's official web portal to all federal, state and local government web resources and services.